DateTimeUTC,F1_A11,F1_S11,BsB_S11,BsG_S11,BsR_S11,BbsB_S11,BbsG_S11,BbsR_S11,BaB_A11,BaG_A11,BaR_A11,Tu_S11,T_S11,Uu_S11,U_S11,P_S11,T1_A11
2021-08-16T03:00:00Z,00000200,20000000,,,,,,,-000.26,-000.11,-000.29,18.6,25.2,09.8,06.5,0674.9,30.9
2021-08-16T03:01:00Z,00000200,20000000,,,,,,,0000.00,-000.14,0000.20,18.6,25.2,09.7,06.5,0674.9,30.9
2021-08-16T03:02:00Z,00000200,20000000,,,,,,,-000.14,-000.04,0000.32,18.6,25.2,09.7,06.5,0674.9,30.9
2021-08-16T03:03:00Z,00000200,60000000,,,,,,,0000.19,0000.74,-000.17,18.6,25.2,09.7,06.5,0674.9,30.9
2021-08-16T03:04:00Z,00000200,40000000,0001.82,0001.41,0000.94,0000.92,0000.34,-000.03,0000.53,-000.10,0000.26,18.7,25.0,09.6,06.5,0675.9,30.9
2021-08-16T03:05:00Z,00000200,00000000,0001.80,0001.13,0000.92,0000.57,0000.43,0000.16,0000.40,0000.74,0000.30,18.8,25.0,09.6,06.5,0675.9,30.9
2021-08-16T03:06:00Z,00000200,00000000,0002.19,0001.19,0000.83,0000.58,0000.61,0000.24,0000.32,0000.22,0000.26,18.8,25.0,09.7,06.6,0675.9,30.9
2021-08-16T03:07:00Z,00000200,00000000,0002.14,0000.85,0000.89,0000.16,0000.45,0000.04,0000.32,0000.23,0000.25,18.8,25.0,09.6,06.6,0675.9,30.9
2021-08-16T03:08:00Z,00000200,00000000,0001.79,0000.86,0000.95,0000.17,0000.54,-000.01,0000.30,0000.02,0000.63,18.8,25.0,09.7,06.6,0675.9,30.9
2021-08-16T03:09:00Z,00000200,00000000,0002.07,0001.15,0000.84,0000.37,0000.29,-000.08,0000.33,0000.74,-000.18,18.7,24.9,09.6,06.6,0675.9,30.9
2021-08-16T03:10:00Z,00000200,00000000,0001.59,0001.25,0000.95,0000.06,0000.31,0000.22,0000.21,0000.45,0000.41,18.7,24.9,09.7,06.6,0675.9,30.9
2021-08-16T03:11:00Z,00000200,00000000,0001.67,0001.19,0000.61,0000.18,0000.37,-000.11,0000.67,0000.00,0000.39,18.7,24.9,09.8,06.7,0675.9,30.9
2021-08-16T03:12:00Z,00000200,00000000,0001.72,0001.29,0000.68,0000.32,0000.22,0000.22,0000.06,0000.04,-000.17,18.8,24.9,09.7,06.6,0675.9,30.9
2021-08-16T03:13:00Z,00000200,00000000,0001.52,0001.06,0000.86,0000.48,0000.37,0000.09,0000.50,0000.64,0000.42,18.8,25.0,09.7,06.7,0675.9,30.9
2021-08-16T03:14:00Z,00000200,00000000,0002.23,0000.96,0000.83,0000.59,0000.46,-000.16,0000.12,0000.17,0000.20,18.9,25.0,09.6,06.6,0675.9,30.9
2021-08-16T03:15:00Z,00000200,00000000,0001.88,0001.28,0000.87,0000.40,0000.43,0000.19,0000.45,0000.14,0000.47,18.9,25.0,09.7,06.6,0675.9,30.9
2021-08-16T03:16:00Z,00000200,00000000,0002.51,0000.94,0000.88,0000.58,0000.18,0000.29,0000.14,0000.22,0000.11,18.9,25.0,09.7,06.7,0675.9,30.9
2021-08-16T03:17:00Z,00000200,00000000,0002.22,0001.03,0000.98,0000.23,0000.35,0000.46,0000.22,0000.44,0000.49,18.9,25.0,09.8,06.7,0675.9,30.9
2021-08-16T03:18:00Z,00000200,00000000,0001.82,0001.24,0000.80,0000.46,0000.29,-000.04,0000.34,0000.50,-000.00,18.9,25.0,09.7,06.7,0675.9,30.9
2021-08-16T03:19:00Z,00000200,00000000,0001.77,0001.42,0001.04,0000.46,0000.35,0000.03,0000.71,0000.50,0000.32,18.8,25.0,09.6,06.6,0675.9,30.9
2021-08-16T03:20:00Z,00000200,00000000,0002.21,0001.35,0001.08,-000.18,0000.37,0000.27,0000.40,0000.27,0000.72,18.8,25.0,09.7,06.7,0675.9,30.9
2021-08-16T03:21:00Z,00000200,00000000,0002.05,0001.10,0000.55,0000.67,0000.31,0000.01,0000.34,0000.37,-000.06,18.8,25.0,09.6,06.6,0675.9,30.9
2021-08-16T03:22:00Z,00000200,00000000,0001.77,0000.94,0000.60,-000.15,0000.20,-000.14,0000.08,0000.05,0000.02,18.8,25.0,09.6,06.6,0675.9,30.9
2021-08-16T03:23:00Z,00000200,00000000,0001.83,0000.82,0000.92,0000.95,0000.25,0000.08,0000.29,0000.26,0000.46,18.8,25.0,09.7,06.7,0675.9,30.9
2021-08-16T03:24:00Z,00000200,00000000,0002.00,0001.18,0000.95,0000.17,0000.04,0000.14,0000.58,0000.34,-000.02,18.8,24.9,09.7,06.6,0675.9,30.9
2021-08-16T03:25:00Z,00000200,00000000,0002.03,0001.08,0000.79,0000.35,0000.38,0000.32,0000.19,0000.25,-000.05,18.8,24.9,09.7,06.7,0675.8,30.9
2021-08-16T03:26:00Z,00000200,00000000,0001.90,0000.90,0000.69,0000.39,0000.12,0000.08,-000.17,0000.33,0000.45,18.8,24.9,09.6,06.6,0675.8,30.9
2021-08-16T03:27:00Z,00000200,00000000,0001.36,0000.88,0000.88,0000.46,0000.12,-000.02,0000.38,0000.29,0000.11,18.7,24.9,09.6,06.6,0675.8,30.9
2021-08-16T03:28:00Z,00000200,00000000,0002.45,0001.27,0000.61,0000.53,0000.35,0000.01,0000.43,0000.36,0000.32,18.7,24.9,09.5,06.5,0675.8,30.9
2021-08-16T03:29:00Z,00000200,00000000,0001.53,0001.22,0000.90,0000.70,0000.24,-000.11,0000.59,-000.10,-000.03,18.7,24.9,09.6,06.6,0675.8,30.9
2021-08-16T03:30:00Z,00000200,00000000,0002.03,0001.35,0000.76,-000.02,0000.44,-000.07,0000.18,0000.36,0000.12,18.7,24.9,09.5,06.5,0675.8,30.9
2021-08-16T03:31:00Z,00000200,00000000,0001.90,0001.19,0000.86,0000.05,0000.44,0000.28,0000.68,0000.23,0000.44,18.7,24.9,09.5,06.5,0675.8,30.9
2021-08-16T03:32:00Z,00000200,00000000,0002.31,0001.12,0001.09,0000.41,0000.39,0000.06,-000.27,-000.01,0000.12,18.7,24.9,09.5,06.5,0675.8,30.9
2021-08-16T03:33:00Z,00000200,00000000,0002.10,0001.60,0000.94,0000.39,0000.38,0000.01,0000.27,0000.84,0000.50,18.7,24.9,09.5,06.5,0675.8,30.9
2021-08-16T03:34:00Z,00000200,00000000,0001.68,0001.05,0001.18,0000.26,0000.54,0000.41,0000.55,0000.17,0000.09,18.7,24.9,09.5,06.5,0675.8,30.9
2021-08-16T03:35:00Z,00000200,00000000,0002.46,0001.16,0000.84,0000.37,0000.56,-000.03,0000.30,0000.36,0000.24,18.7,24.8,09.4,06.5,0675.8,30.9
2021-08-16T03:36:00Z,00000200,00000000,0001.53,0000.91,0001.03,0000.08,0000.10,0000.23,0000.44,0000.00,0000.40,18.7,24.9,09.4,06.5,0675.9,30.9
2021-08-16T03:37:00Z,00000200,00000000,0002.93,0001.27,0001.05,0000.65,0000.39,-000.07,0000.46,0000.53,0000.25,18.7,24.8,09.4,06.5,0675.9,30.9
2021-08-16T03:38:00Z,00000200,00000000,0002.16,0001.26,0001.01,0000.26,0000.26,-000.03,0000.20,0000.13,0000.08,18.7,24.8,09.3,06.4,0675.9,30.9
2021-08-16T03:39:00Z,00000200,00000000,0002.17,0001.26,0001.12,0000.82,0000.12,0000.13,0000.49,0000.58,0000.45,18.7,24.8,09.4,06.5,0675.9,30.9
2021-08-16T03:40:00Z,00000200,00000000,0001.90,0001.14,0001.12,0000.41,0000.54,-000.07,0000.21,0000.22,0000.53,18.7,24.8,09.4,06.5,0675.9,30.9
2021-08-16T03:41:00Z,00000200,00000000,0002.51,0001.46,0001.24,0000.69,0000.17,-000.10,0000.60,0000.86,-000.00,18.7,24.8,09.4,06.5,0675.9,30.9
2021-08-16T03:42:00Z,00000200,00000000,0002.11,0001.17,0001.10,0000.61,0000.51,0000.31,-000.16,0000.12,0000.17,18.7,24.8,09.4,06.5,0675.9,30.9
2021-08-16T03:43:00Z,00000200,00000000,0001.82,0001.50,0000.84,0000.47,0000.38,0000.33,0000.60,-000.09,0000.24,18.8,24.9,09.3,06.4,0675.8,30.9
2021-08-16T03:44:00Z,00000200,00000000,0002.64,0001.40,0000.77,0000.09,0000.50,-000.09,0000.45,0000.60,0000.24,18.9,24.9,09.3,06.4,0675.8,30.9
2021-08-16T03:45:00Z,00000200,00000000,0002.11,0001.16,0001.07,0000.31,0000.28,0000.54,0000.04,0000.65,0000.47,18.9,25.0,09.2,06.4,0675.7,30.9
2021-08-16T03:46:00Z,00000200,00000000,0001.92,0001.34,0001.07,0000.51,0000.33,0000.35,0000.63,-000.15,0000.12,19.0,25.0,09.2,06.4,0675.8,30.9
2021-08-16T03:47:00Z,00000200,00000000,0002.04,0001.42,0001.03,-000.05,0000.16,-000.00,0000.53,0000.30,0000.08,19.0,25.0,09.1,06.3,0675.8,30.9
2021-08-16T03:48:00Z,00000200,00000000,0001.80,0001.53,0000.87,0000.55,0000.36,0000.18,0000.04,0000.13,0000.36,19.0,25.0,09.1,06.3,0675.8,30.9
2021-08-16T03:49:00Z,00000200,00000000,0001.79,0001.18,0000.91,-000.31,0000.26,-000.05,0000.54,0000.54,0000.21,18.9,25.0,09.1,06.3,0675.8,30.9
2021-08-16T03:50:00Z,00000200,00000000,0002.77,0001.40,0001.14,0000.56,0000.32,-000.03,0000.15,0000.41,0000.10,18.9,25.0,09.1,06.3,0675.8,30.9
2021-08-16T03:51:00Z,00000200,00000000,0002.07,0000.75,0001.12,0000.85,0000.46,0000.10,0000.29,0000.16,0000.14,18.9,25.0,09.1,06.3,0675.8,30.9
2021-08-16T03:52:00Z,00000200,00000000,0001.98,0001.14,0001.02,0000.68,0000.28,0000.11,0000.49,0000.46,0000.23,18.9,25.0,09.0,06.2,0675.8,30.9
2021-08-16T03:53:00Z,00000200,00000000,0001.77,0001.09,0001.19,0000.32,0000.38,0000.28,0000.33,0000.03,0000.28,18.9,25.0,09.0,06.2,0675.8,30.9
2021-08-16T03:54:00Z,00000200,00000000,0002.06,0001.72,0000.87,0001.23,0000.28,0000.20,0000.37,0000.55,0000.03,18.9,25.0,09.1,06.2,0675.8,30.9
2021-08-16T03:55:00Z,00000200,00000000,0002.71,0001.24,0001.14,-000.09,0000.37,0000.26,0000.21,0000.28,0000.40,18.9,25.0,09.0,06.2,0675.8,30.9
2021-08-16T03:56:00Z,00000200,00000000,0001.41,0001.08,0001.06,0000.48,0000.25,0000.17,0000.30,0000.45,0000.39,18.8,25.0,09.0,06.2,0675.7,30.9
2021-08-16T03:57:00Z,00000200,40000000,,,,,,,0000.13,0000.09,0000.27,18.9,25.0,09.4,06.5,0675.7,30.9
2021-08-16T03:58:00Z,00000200,60000000,,,,,,,-000.27,-000.21,-000.31,18.7,25.1,09.2,06.2,0674.8,30.9
2021-08-16T03:59:00Z,00000200,20000000,,,,,,,0000.24,0000.11,-000.07,18.7,25.2,09.1,06.1,0674.8,30.9
